EW9824 Weather Reports


time (UTC)temp
C
wind
direction
speed
KPH
gust
KPH
rain 1hr
cm
rain 24hr
cm
rain mn
cm
humidity
%
barometer
mb
20260902093031 13 303 11.3 22.5 0.00 0.00 0.00 70 1013.7
20260902091531 13 308 11.3 22.5 0.00 0.00 0.00 70 1013.7
20260902090031 13 297 9.7 22.5 0.00 0.00 0.00 71 1013.7
20260902084606 13 305 11.3 27.4 0.00 0.00 0.00 71 1013.7
20260902081531 13 325 9.7 22.5 0.00 0.00 0.00 74 1013.8
20260902080029 13 339 8.0 19.3 0.00 0.00 0.00 74 1013.9
20260902073105 13 329 9.7 22.5 0.00 0.00 0.00 74 1014.0
20260902071530 13 326 11.3 20.9 0.00 0.00 0.00 73 1014.1
20260902070029 14 326 11.3 25.7 0.00 0.00 0.00 73 1014.4
20260902064531 14 326 11.3 20.9 0.00 0.00 0.00 73 1014.5
20260902063029 14 331 9.7 20.9 0.00 0.00 0.00 72 1014.7
20260902061531 15 323 9.7 20.9 0.00 0.00 0.00 71 1014.7
20260902060031 15 335 6.4 14.5 0.00 0.00 0.00 70 1014.9
20260902054530 15 292 4.8 17.7 0.00 0.00 0.00 68 1014.9
20260902053030 15 275 6.4 16.1 0.00 0.00 0.00 68 1014.8
20260902051646 15 313 6.4 19.3 0.00 0.00 0.00 69 1014.8
20260902050029 15 286 6.4 24.1 0.00 0.00 0.00 69 1014.6
20260902044601 15 289 4.8 16.1 0.00 0.00 0.00 68 1014.5
20260902043029 15 269 8.0 20.9 0.00 0.00 0.00 68 1014.4
20260902040027 15 279 9.7 19.3 0.00 0.00 0.00 68 1014.1
20260902033029 15 294 11.3 27.4 0.00 0.00 0.00 67 1013.6
20260902031609 15 303 9.7 24.1 0.00 0.00 0.00 66 1013.6
20260902030029 15 277 12.9 33.8 0.00 0.00 0.00 66 1013.6
20260902024530 15 279 9.7 29.0 0.00 0.00 0.00 66 1013.8
20260902023032 16 294 9.7 22.5 0.00 0.00 0.00 65 1013.6
20260902021533 16 283 9.7 25.7 0.00 0.00 0.00 63 1013.9
20260902014532 16 316 9.7 20.9 0.00 0.00 0.00 62 1013.6
20260902013032 17 295 11.3 35.4 0.00 0.00 0.00 61 1013.5
20260902011532 17 306 8.0 19.3 0.00 0.00 0.00 60 1013.3
20260902010109 17 303 11.3 29.0 0.00 0.00 0.00 61 1013.2
20260902004534 17 310 9.7 22.5 0.00 0.00 0.00 63 1013.1
20260902003145 17 318 14.5 32.2 0.00 0.00 0.00 62 1012.9
20260902001532 17 309 11.3 27.4 0.00 0.00 0.00 61 1012.7
20260902000146 18 312 9.7 27.4 0.00 0.00 0.00 62 1012.7
20260901233031 18 335 11.3 25.7 0.00 0.00 0.00 60 1012.6
20260901231531 19 317 14.5 30.6 0.00 0.00 0.00 57 1012.5
20260901230035 19 317 11.3 27.4 0.00 0.00 0.00 58 1012.6
20260901224532 20 309 14.5 32.2 0.00 0.00 0.00 56 1012.4
20260901223031 20 318 14.5 35.4 0.00 0.00 0.00 56 1012.4
20260901220030 20 321 16.1 35.4 0.00 0.00 0.00 56 1012.1
20260901214606 20 316 14.5 32.2 0.00 0.00 0.00 56 1011.9
20260901213029 20 323 11.3 32.2 0.00 0.00 0.00 56 1012.1
20260901204531 20 307 12.9 29.0 0.00 0.00 0.00 57 1012.4
20260901203107 20 329 14.5 30.6 0.00 0.00 0.00 57 1012.5
20260901201528 20 327 12.9 30.6 0.00 0.00 0.00 57 1012.6
20260901200034 19 330 11.3 24.1 0.00 0.00 0.00 58 1012.9
20260901194533 19 329 12.9 30.6 0.00 0.00 0.00 58 1013.1
20260901191531 19 334 11.3 27.4 0.00 0.00 0.00 60 1013.5
20260901190031 19 341 12.9 27.4 0.00 0.00 0.00 61 1013.5
20260901183029 18 348 9.7 20.9 0.00 0.00 0.00 63 1013.7
20260901180031 17 349 8.0 20.9 0.00 0.00 0.00 68 1013.9
20260901164604 15 29 6.4 12.9 0.00 0.00 0.00 77 1014.0
20260901163031 14 25 6.4 12.9 0.00 0.00 0.00 78 1013.9
20260901161533 13 8 4.8 12.9 0.00 0.00 0.00 80 1013.9
20260901160030 13 8 4.8 11.3 0.00 0.00 0.00 81 1013.7
20260901154528 13 25 6.4 14.5 0.00 0.00 0.00 82 1013.7
20260901151531 12 38 6.4 14.5 0.00 0.00 0.00 86 1013.6
20260901150107 11 36 6.4 12.9 0.00 0.00 0.00 88 1013.5
20260901144527 10 46 3.2 11.3 0.00 0.00 0.00 85 1013.4
20260901143030 10 143 0.0 3.2 0.00 0.00 0.00 83 1013.3
20260901141531 10 181 1.6 8.0 0.00 0.00 0.00 83 1013.2
20260901134530 8 170 1.6 6.4 0.00 0.00 0.00 87 1012.9
20260901133029 8 173 1.6 6.4 0.00 0.00 0.00 86 1012.8
20260901131530 8 180 1.6 6.4 0.00 0.00 0.00 85 1012.7
20260901130029 8 168 3.2 6.4 0.00 0.00 0.00 84 1012.6
20260901124531 8 189 3.2 6.4 0.00 0.00 0.00 83 1012.5
20260901121533 9 178 3.2 8.0 0.00 0.00 0.00 80 1012.5
20260901120030 9 162 3.2 6.4 0.00 0.00 0.00 80 1012.4
20260901113030 9 180 3.2 6.4 0.00 0.00 0.00 78 1012.5
20260901111532 10 168 3.2 9.7 0.00 0.00 0.00 77 1012.4
20260901104609 9 167 3.2 6.4 0.00 0.00 0.00 76 1012.5
20260901103031 10 180 3.2 6.4 0.00 0.00 0.00 74 1012.6
20260901100108 10 158 3.2 8.0 0.00 0.00 0.00 71 1012.6
20260901094529 10 166 1.6 6.4 0.00 0.00 0.00 71 1012.5